Location: Elma
(49.8670°N, 95.9170°W)
Time: 19:30:02
(UTC-05:00)

N. Korean satellite - Visible Passes

Search period start: 19 October 2019 00:00
Search period end: 29 October 2019 00:00
Orbit: 455 x 508 km, 97.2° (Epoch: 19 October)

Date Brightness Start Highest point End Pass type
(mag) Time Alt. Az. Time Alt. Az. Time Alt. Az.
19 Oct 9.7 06:31:18 10° NE 06:33:57 19° E 06:36:36 10° SE visible
20 Oct 10.5 06:07:46 10° ENE 06:08:25 10° E 06:09:04 10° E visible
21 Oct 7.4 07:13:23 10° NNE 07:16:57 56° E 07:20:33 10° S visible
21 Oct 10.0 19:27:54 10° SW 19:30:06 16° W 19:32:19 10° NW visible
22 Oct 8.9 06:48:20 10° NNE 06:51:34 29° E 06:54:47 10° SSE visible
22 Oct 8.8 19:01:32 10° SSW 19:04:36 30° W 19:07:42 10° NNW visible
23 Oct 10.0 06:23:43 10° NE 06:26:04 16° E 06:28:25 10° SE visible
24 Oct 10.5 19:47:09 10° W 19:47:44 10° W 19:48:18 10° WNW visible
25 Oct 7.9 07:05:34 10° NNE 07:09:06 46° E 07:12:39 10° S visible
25 Oct 9.7 19:19:35 10° SW 19:22:09 19° W 19:24:45 10° NW visible
26 Oct 9.3 06:40:36 10° NE 06:43:40 25° E 06:46:44 10° SSE visible
26 Oct 8.3 18:53:27 10° SSW 18:56:40 36° W 18:59:57 10° NNW visible
27 Oct 10.2 06:16:12 10° ENE 06:18:08 14° E 06:20:05 10° ESE visible
28 Oct 6.9 07:22:53 10° NNE 07:26:34 75° ESE 07:30:16 10° S visible
28 Oct 10.1 19:38:06 10° WSW 19:39:44 13° W 19:41:23 10° WNW visible
